Time,TemperatureF,DewpointF,PressureIn,WindDirection,WindDirectionDegrees,WindSpeedMPH,WindSpeedGustMPH,Humidity,HourlyPrecipIn,Conditions,Clouds,dailyrainin,SoftwareType,DateUTC
2013-01-10 00:06:00,56.5,28.0,30.39,West,259,7.0,13.0,33,0.00,,,0.00,weatherlink.com 1.10,2013-01-10 05:06:00,
2013-01-10 00:21:00,54.7,28.0,30.39,West,269,9.0,12.0,36,0.00,,,0.00,weatherlink.com 1.10,2013-01-10 05:21:00,
2013-01-10 01:06:00,51.5,28.0,30.39,NW,322,3.0,4.0,40,0.00,,,0.00,weatherlink.com 1.10,2013-01-10 06:06:00,
2013-01-10 01:21:00,50.0,28.0,30.40,WNW,292,0.0,2.0,42,0.00,,,0.00,weatherlink.com 1.10,2013-01-10 06:21:00,
2013-01-10 01:36:00,50.1,29.0,30.40,WNW,292,1.0,2.0,44,0.00,,,0.00,weatherlink.com 1.10,2013-01-10 06:36:00,
2013-01-10 01:51:00,50.1,26.0,30.40,WNW,292,1.0,3.0,39,0.00,,,0.00,weatherlink.com 1.10,2013-01-10 06:51:00,
2013-01-10 02:06:00,50.5,27.0,30.41,West,275,3.0,7.0,40,0.00,,,0.00,weatherlink.com 1.10,2013-01-10 07:06:00,
2013-01-10 02:21:00,49.3,29.0,30.42,NW,309,1.0,5.0,45,0.00,,,0.00,weatherlink.com 1.10,2013-01-10 07:21:00,
2013-01-10 02:37:00,45.9,26.0,30.42,NW,309,0.0,2.0,46,0.00,,,0.00,weatherlink.com 1.10,2013-01-10 07:37:00,
2013-01-10 02:52:00,44.1,27.0,30.43,WNW,300,3.0,3.0,52,0.00,,,0.00,weatherlink.com 1.10,2013-01-10 07:52:00,
2013-01-10 03:07:00,44.3,28.0,30.43,WNW,300,0.0,3.0,54,0.00,,,0.00,weatherlink.com 1.10,2013-01-10 08:07:00,
2013-01-10 03:22:00,44.9,27.0,30.43,WNW,300,2.0,3.0,50,0.00,,,0.00,weatherlink.com 1.10,2013-01-10 08:22:00,
2013-01-10 03:37:00,45.0,28.0,30.43,WSW,242,0.0,3.0,52,0.00,,,0.00,weatherlink.com 1.10,2013-01-10 08:37:00,
2013-01-10 03:52:00,42.0,27.0,30.43,North,5,0.0,4.0,55,0.00,,,0.00,weatherlink.com 1.10,2013-01-10 08:52:00,
2013-01-10 04:07:00,42.3,29.0,30.43,North,5,1.0,3.0,59,0.00,,,0.00,weatherlink.com 1.10,2013-01-10 09:07:00,
2013-01-10 04:22:00,41.9,27.0,30.43,North,5,2.0,3.0,57,0.00,,,0.00,weatherlink.com 1.10,2013-01-10 09:22:00,
2013-01-10 04:37:00,41.4,28.0,30.43,WNW,296,3.0,4.0,60,0.00,,,0.00,weatherlink.com 1.10,2013-01-10 09:37:00,
2013-01-10 04:52:00,39.4,27.0,30.43,NW,306,1.0,3.0,62,0.00,,,0.00,weatherlink.com 1.10,2013-01-10 09:52:00,
2013-01-10 05:07:00,40.0,27.0,30.44,NW,306,1.0,2.0,59,0.00,,,0.00,weatherlink.com 1.10,2013-01-10 10:07:00,
2013-01-10 05:22:00,42.0,27.0,30.44,WSW,242,0.0,2.0,55,0.00,,,0.00,weatherlink.com 1.10,2013-01-10 10:22:00,
2013-01-10 05:37:00,41.6,26.0,30.45,WSW,242,0.0,1.0,54,0.00,,,0.00,weatherlink.com 1.10,2013-01-10 10:37:00,
2013-01-10 05:52:00,41.3,26.0,30.46,NE,42,0.0,3.0,55,0.00,,,0.00,weatherlink.com 1.10,2013-01-10 10:52:00,
2013-01-10 06:07:00,38.3,26.0,30.47,WNW,300,1.0,4.0,61,0.00,,,0.00,weatherlink.com 1.10,2013-01-10 11:07:00,
2013-01-10 06:22:00,38.2,26.0,30.48,WNW,300,2.0,3.0,63,0.00,,,0.00,weatherlink.com 1.10,2013-01-10 11:22:00,
2013-01-10 06:37:00,34.8,26.0,30.49,NW,314,2.0,3.0,69,0.00,,,0.00,weatherlink.com 1.10,2013-01-10 11:37:00,
2013-01-10 06:52:00,36.8,26.0,30.49,WNW,300,2.0,3.0,65,0.00,,,0.00,weatherlink.com 1.10,2013-01-10 11:52:00,
2013-01-10 07:07:00,35.7,26.0,30.50,WNW,300,2.0,3.0,68,0.00,,,0.00,weatherlink.com 1.10,2013-01-10 12:07:00,
2013-01-10 07:23:00,33.9,25.0,30.51,WNW,300,3.0,3.0,71,0.00,,,0.00,weatherlink.com 1.10,2013-01-10 12:23:00,
2013-01-10 07:37:00,33.5,26.0,30.52,NW,326,3.0,3.0,74,0.00,,,0.00,weatherlink.com 1.10,2013-01-10 12:37:00,
2013-01-10 07:52:00,34.0,26.0,30.53,WNW,302,0.0,3.0,73,0.00,,,0.00,weatherlink.com 1.10,2013-01-10 12:52:00,
2013-01-10 08:07:00,35.8,26.0,30.54,WNW,302,1.0,2.0,68,0.00,,,0.00,weatherlink.com 1.10,2013-01-10 13:07:00,
2013-01-10 08:22:00,36.4,27.0,30.55,WNW,302,2.0,3.0,70,0.00,,,0.00,weatherlink.com 1.10,2013-01-10 13:22:00,
2013-01-10 08:37:00,38.1,28.0,30.56,WNW,302,0.0,2.0,66,0.00,,,0.00,weatherlink.com 1.10,2013-01-10 13:37:00,
2013-01-10 08:53:00,39.3,28.0,30.56,WNW,302,0.0,2.0,63,0.00,,,0.00,weatherlink.com 1.10,2013-01-10 13:53:00,
2013-01-10 09:08:00,42.7,32.0,30.56,WNW,302,0.0,2.0,66,0.00,,,0.00,weatherlink.com 1.10,2013-01-10 14:08:00,
2013-01-10 09:23:00,44.9,33.0,30.57,WNW,302,2.0,2.0,63,0.00,,,0.00,weatherlink.com 1.10,2013-01-10 14:23:00,
2013-01-10 09:38:00,47.9,30.0,30.57,NE,53,2.0,5.0,50,0.00,,,0.00,weatherlink.com 1.10,2013-01-10 14:38:00,
2013-01-10 09:53:00,48.7,31.0,30.57,NNW,346,3.0,5.0,50,0.00,,,0.00,weatherlink.com 1.10,2013-01-10 14:53:00,
2013-01-10 10:08:00,49.8,30.0,30.57,NE,38,2.0,4.0,47,0.00,,,0.00,weatherlink.com 1.10,2013-01-10 15:08:00,
2013-01-10 10:23:00,51.1,30.0,30.56,East,81,1.0,3.0,44,0.00,,,0.00,weatherlink.com 1.10,2013-01-10 15:23:00,
2013-01-10 10:38:00,52.5,30.0,30.55,East,84,2.0,4.0,42,0.00,,,0.00,weatherlink.com 1.10,2013-01-10 15:38:00,
2013-01-10 10:53:00,53.1,30.0,30.55,East,79,1.0,4.0,41,0.00,,,0.00,weatherlink.com 1.10,2013-01-10 15:53:00,
2013-01-10 11:08:00,53.5,31.0,30.54,ENE,59,2.0,5.0,42,0.00,,,0.00,weatherlink.com 1.10,2013-01-10 16:08:00,
2013-01-10 11:23:00,53.3,31.0,30.54,East,81,6.0,7.0,42,0.00,,,0.00,weatherlink.com 1.10,2013-01-10 16:23:00,
2013-01-10 11:38:00,53.5,31.0,30.53,North,351,3.0,6.0,42,0.00,,,0.00,weatherlink.com 1.10,2013-01-10 16:38:00,
2013-01-10 11:53:00,54.9,31.0,30.52,NNE,21,3.0,7.0,41,0.00,,,0.00,weatherlink.com 1.10,2013-01-10 16:53:00,
2013-01-10 12:08:00,55.7,30.0,30.51,NNE,12,6.0,8.0,38,0.00,,,0.00,weatherlink.com 1.10,2013-01-10 17:08:00,
2013-01-10 12:23:00,55.7,30.0,30.51,NNE,28,4.0,10.0,37,0.00,,,0.00,weatherlink.com 1.10,2013-01-10 17:23:00,
2013-01-10 12:38:00,56.2,29.0,30.50,North,360,2.0,5.0,36,0.00,,,0.00,weatherlink.com 1.10,2013-01-10 17:38:00,
2013-01-10 12:53:00,56.2,30.0,30.50,NNW,328,4.0,6.0,37,0.00,,,0.00,weatherlink.com 1.10,2013-01-10 17:53:00,
2013-01-10 13:08:00,55.9,30.0,30.50,SE,132,3.0,5.0,38,0.00,,,0.00,weatherlink.com 1.10,2013-01-10 18:08:00,
2013-01-10 13:23:00,55.6,30.0,30.50,ESE,117,2.0,7.0,38,0.00,,,0.00,weatherlink.com 1.10,2013-01-10 18:23:00,
2013-01-10 13:38:00,55.6,31.0,30.49,SE,129,3.0,4.0,40,0.00,,,0.00,weatherlink.com 1.10,2013-01-10 18:38:00,
2013-01-10 13:53:00,55.0,33.0,30.48,SE,138,2.0,6.0,44,0.00,,,0.00,weatherlink.com 1.10,2013-01-10 18:53:00,
2013-01-10 14:08:00,55.1,33.0,30.49,SE,141,4.0,5.0,43,0.00,,,0.00,weatherlink.com 1.10,2013-01-10 19:08:00,
2013-01-10 14:23:00,56.0,33.0,30.48,ESE,111,4.0,8.0,42,0.00,,,0.00,weatherlink.com 1.10,2013-01-10 19:23:00,
2013-01-10 14:38:00,55.9,32.0,30.48,ESE,109,2.0,9.0,41,0.00,,,0.00,weatherlink.com 1.10,2013-01-10 19:38:00,
2013-01-10 14:53:00,56.0,33.0,30.48,ESE,108,4.0,7.0,42,0.00,,,0.00,weatherlink.com 1.10,2013-01-10 19:53:00,
2013-01-10 15:08:00,56.3,32.0,30.48,East,98,1.0,6.0,40,0.00,,,0.00,weatherlink.com 1.10,2013-01-10 20:08:00,
2013-01-10 15:23:00,55.5,33.0,30.48,ESE,108,3.0,5.0,43,0.00,,,0.00,weatherlink.com 1.10,2013-01-10 20:23:00,
2013-01-10 15:39:00,55.2,33.0,30.48,ENE,74,3.0,4.0,43,0.00,,,0.00,weatherlink.com 1.10,2013-01-10 20:39:00,
2013-01-10 15:53:00,54.9,33.0,30.47,NE,51,2.0,7.0,43,0.00,,,0.00,weatherlink.com 1.10,2013-01-10 20:53:00,
2013-01-10 16:08:00,54.4,31.0,30.48,East,84,2.0,5.0,41,0.00,,,0.00,weatherlink.com 1.10,2013-01-10 21:08:00,
2013-01-10 16:23:00,53.6,33.0,30.48,East,84,0.0,2.0,46,0.00,,,0.00,weatherlink.com 1.10,2013-01-10 21:23:00,
2013-01-10 16:38:00,52.9,32.0,30.49,East,84,0.0,2.0,45,0.00,,,0.00,weatherlink.com 1.10,2013-01-10 21:38:00,
2013-01-10 17:23:00,50.8,33.0,30.48,East,84,0.0,2.0,50,0.00,,,0.00,weatherlink.com 1.10,2013-01-10 22:23:00,
2013-01-10 17:38:00,49.4,31.0,30.49,East,84,1.0,1.0,49,0.00,,,0.00,weatherlink.com 1.10,2013-01-10 22:38:00,
2013-01-10 17:53:00,49.8,31.0,30.49,East,84,0.0,1.0,48,0.00,,,0.00,weatherlink.com 1.10,2013-01-10 22:53:00,
2013-01-10 18:08:00,49.7,31.0,30.49,East,84,0.0,1.0,48,0.00,,,0.00,weatherlink.com 1.10,2013-01-10 23:08:00,
2013-01-10 18:23:00,49.0,31.0,30.49,East,84,1.0,1.0,50,0.00,,,0.00,weatherlink.com 1.10,2013-01-10 23:23:00,
2013-01-10 18:38:00,48.6,31.0,30.50,East,84,0.0,2.0,50,0.00,,,0.00,weatherlink.com 1.10,2013-01-10 23:38:00,
2013-01-10 18:53:00,48.8,31.0,30.50,East,84,0.0,0.0,50,0.00,,,0.00,weatherlink.com 1.10,2013-01-10 23:53:00,
2013-01-10 19:08:00,48.0,32.0,30.49,East,84,0.0,1.0,54,0.00,,,0.00,weatherlink.com 1.10,2013-01-11 00:08:00,
2013-01-10 19:23:00,46.8,32.0,30.49,East,84,0.0,2.0,57,0.00,,,0.00,weatherlink.com 1.10,2013-01-11 00:23:00,
2013-01-10 19:38:00,45.8,32.0,30.49,East,84,1.0,2.0,59,0.00,,,0.00,weatherlink.com 1.10,2013-01-11 00:38:00,
2013-01-10 19:53:00,45.5,32.0,30.49,East,84,1.0,2.0,60,0.00,,,0.00,weatherlink.com 1.10,2013-01-11 00:53:00,
2013-01-10 20:08:00,45.0,32.0,30.49,East,84,1.0,2.0,60,0.00,,,0.00,weatherlink.com 1.10,2013-01-11 01:08:00,
2013-01-10 20:23:00,44.9,32.0,30.49,East,84,2.0,2.0,61,0.00,,,0.00,weatherlink.com 1.10,2013-01-11 01:23:00,
2013-01-10 20:38:00,43.8,31.0,30.49,East,84,1.0,2.0,62,0.00,,,0.00,weatherlink.com 1.10,2013-01-11 01:38:00,
2013-01-10 20:53:00,43.6,31.0,30.49,East,84,1.0,1.0,62,0.00,,,0.00,weatherlink.com 1.10,2013-01-11 01:53:00,
2013-01-10 21:08:00,43.3,32.0,30.48,East,84,1.0,2.0,64,0.00,,,0.00,weatherlink.com 1.10,2013-01-11 02:08:00,
2013-01-10 21:23:00,43.0,32.0,30.48,East,84,0.0,3.0,65,0.00,,,0.00,weatherlink.com 1.10,2013-01-11 02:23:00,
2013-01-10 21:38:00,43.1,31.0,30.48,East,84,0.0,2.0,62,0.00,,,0.00,weatherlink.com 1.10,2013-01-11 02:38:00,
2013-01-10 21:53:00,44.0,31.0,30.48,East,84,0.0,2.0,60,0.00,,,0.00,weatherlink.com 1.10,2013-01-11 02:53:00,
2013-01-10 22:08:00,43.9,31.0,30.49,East,84,0.0,2.0,60,0.00,,,0.00,weatherlink.com 1.10,2013-01-11 03:08:00,
2013-01-10 22:23:00,43.3,31.0,30.48,East,84,0.0,0.0,62,0.00,,,0.00,weatherlink.com 1.10,2013-01-11 03:23:00,
2013-01-10 22:38:00,43.0,31.0,30.48,East,84,1.0,1.0,63,0.00,,,0.00,weatherlink.com 1.10,2013-01-11 03:38:00,
2013-01-10 22:53:00,42.9,31.0,30.47,East,84,1.0,2.0,63,0.00,,,0.00,weatherlink.com 1.10,2013-01-11 03:53:00,
2013-01-10 23:08:00,42.6,31.0,30.47,East,84,0.0,2.0,64,0.00,,,0.00,weatherlink.com 1.10,2013-01-11 04:08:00,
2013-01-10 23:23:00,42.1,30.0,30.48,East,84,2.0,2.0,63,0.00,,,0.00,weatherlink.com 1.10,2013-01-11 04:23:00,
2013-01-10 23:38:00,41.7,30.0,30.48,East,84,1.0,2.0,64,0.00,,,0.00,weatherlink.com 1.10,2013-01-11 04:38:00,
2013-01-10 23:53:00,40.8,31.0,30.48,East,84,0.0,1.0,68,0.00,,,0.00,weatherlink.com 1.10,2013-01-11 04:53:00,